1287273625133,3.07539
1287273685133,3.08593
1287273745133,3.08768
1287273805133,3.06429
1287273865133,3.09510
1287273925133,3.07278
1287273985133,3.05888
1287274045133,3.03782
1287274105133,3.07524
1287274165133,3.11843
1287274225133,3.06205
1287274285133,3.11865
1287274345133,3.11700
1287274405133,3.10987
1287274465133,3.08165
1287274525133,3.12731
1287274585133,3.07745
1287274645133,3.10419
1287274705133,3.08472
1287274765133,3.07988
1287274825133,3.06498
1287274885133,3.07425
1287274945133,3.06985
1287275005133,3.08604
1287275065133,3.08505
1287275125133,3.07450
1287275185133,3.09763
1287275245133,3.09679
1287275305133,3.08753
1287275365133,3.13624
1287275425133,3.13135
1287275485133,3.12272
1287275545133,3.14279
1287275605133,3.16564
1287275665133,3.14273
1287275725133,3.13157
1287275785133,3.11367
1287275845133,3.12386
1287275905133,3.11062
1287275965133,3.10052
1287276025133,3.10409
1287276085133,3.13346
1287276145133,3.11592
1287276205133,3.12293
1287276265133,3.10772
1287276325133,3.08410
1287276385133,3.13025
1287276445133,3.09260
1287276505133,3.09640
1287276565133,3.13098
1287276625133,3.12662
1287276685133,3.11005
1287276745133,3.10679
1287276805133,3.07817
1287276865133,3.10489
1287276925133,3.08770
1287276985133,3.11672
1287277045133,3.13440
1287277105133,3.10661
1287277165133,3.12289
1287277225144,3.08786
1287277285144,3.10484
1287277345144,3.12589
1287277405144,3.10039
1287277465144,3.11912
1287277525144,3.08837
1287277585144,3.11375
1287277645144,3.10324
1287277705144,3.10848
1287277765144,3.07258
1287277825144,3.10391
1287277885144,3.13863
1287277945144,3.15010
1287278005144,3.13643
1287278065144,3.12966
1287278125144,3.12773
1287278185144,3.11140
1287278245144,3.10257
1287278305144,3.10413
1287278365144,3.14329
1287278425144,3.11524
1287278485144,3.12836
1287278545144,3.10200
1287278605144,3.11757
1287278665144,3.08979
1287278725144,3.13108
1287278785144,3.11061
1287278845144,3.09476
1287278905144,3.10801
1287278965144,3.11872
1287279025144,3.12921
1287279085144,3.10110
1287279145144,3.10886
1287279205144,3.09254
1287279265144,3.13697
1287279325144,3.11472
1287279385144,3.12628
1287279445144,3.08686
1287279505144,3.13083
1287279565144,3.10025
1287279625144,3.12828
1287279685144,3.12945
1287279745144,3.11741
1287279805144,3.07663
1287279865144,3.10201
1287279925144,3.08065
1287279985144,3.09190
1287280045144,3.10661
1287280105144,3.10217
1287280165144,3.10284
1287280225144,3.11898
1287280285144,3.11957
1287280345144,3.14741
1287280405144,3.07962
1287280465144,3.09216
1287280525144,3.08764
1287280585144,3.11687
1287280645144,3.07223
1287280705144,3.11909
1287280765144,3.09007
1287280825155,3.12182
1287280885155,3.09421
1287280945155,3.13286
1287281005155,3.13051
1287281065155,3.12532
1287281125155,3.12225
1287281185155,3.10252
1287281245155,3.09829
1287281305155,3.08248
1287281365155,3.11261
1287281425155,3.10001
1287281485155,3.14733
1287281545155,3.13625
1287281605155,3.13572
1287281665155,3.11357
1287281725155,3.09262
1287281785155,3.07939
1287281845155,3.11635
1287281905155,3.10930
1287281965155,3.09290
1287282025155,3.10643
1287282085155,3.08595
1287282145155,3.08075
1287282205155,3.11285
1287282265155,3.12994
1287282325155,3.08381
1287282385155,3.11405
1287282445155,3.09030
1287282505155,3.15553
1287282565155,3.12086
1287282625155,3.09543
1287282685155,3.11615
1287282745155,3.09262
1287282805155,3.11315
1287282865155,3.08697
1287282925155,3.06898
1287282985155,3.07782
1287283045155,3.09513
1287283105155,3.13004
1287283165155,3.10424
1287283225155,3.10945
1287283285155,3.07416
1287283345155,3.09346
1287283405155,3.10266
1287283465155,3.08177
1287283525155,3.08326
1287283585155,3.10398
1287283645155,3.10324
1287283705155,3.10170
1287283765155,3.10361
1287283825155,3.08582
1287283885155,3.13041
1287283945155,3.07491
1287284005155,3.07427
1287284065155,3.12470
1287284125155,3.05932
1287284185155,3.11782
1287284245155,3.12475
1287284305155,3.12387
1287284365155,3.09504
1287284425165,3.10956
1287284485165,3.12596
1287284545165,3.10007
1287284605165,3.09027
1287284665165,3.08098
1287284725165,3.11891
1287284785165,3.11859
1287284845165,3.10743
1287284905165,3.09950
1287284965165,3.10999
1287285025165,3.13502
1287285085165,3.11255
1287285145165,3.11729
1287285205165,3.09071
1287285265165,3.09889
1287285325165,3.10432
1287285385165,3.10826
1287285445165,3.08569
1287285505165,3.04971
1287285565165,3.08581
1287285625165,3.06398
1287285685165,3.07243
1287285745165,3.11355
1287285805165,3.07524
1287285865165,3.09707
1287285925165,3.07482
1287285985165,3.13758
1287286045165,3.09857
1287286105165,3.09299
1287286165165,3.11413
1287286225165,3.09222
1287286285165,3.08686
1287286345165,3.08248
1287286405165,3.12117
1287286465165,3.12691
1287286525165,3.11094
1287286585165,3.07346
1287286645165,3.14526
1287286705165,3.12083
1287286765165,3.11876
1287286825165,3.09835
1287286885165,3.13364
1287286945165,3.07772
1287287005165,3.14502
1287287065165,3.11479
1287287125165,3.14137
1287287185165,3.14036
1287287245165,3.09734
1287287305165,3.12389
1287287365165,3.10375
1287287425165,3.09138
1287287485165,3.09446
1287287545165,3.06906
1287287605165,3.09583
1287287665165,3.08026
1287287725165,3.04780
1287287785165,3.11866
1287287845165,3.10964
1287287905165,3.12038
1287287965165,3.08094
1287288025175,3.07989
1287288085175,3.10053
1287288145175,3.10682
1287288205175,3.09929
1287288265175,3.10916
1287288325175,3.11878
1287288385175,3.11742
1287288445175,3.12210
1287288505175,3.13761
1287288565175,3.13770
1287288625175,3.11129
1287288685175,3.11681
1287288745175,3.08880
1287288805175,3.12236
1287288865175,3.11401
1287288925175,3.11815
1287288985176,3.14370
1287289045176,3.13150
1287289105176,3.13041
1287289165176,3.13316
1287289225176,3.18228
1287289285175,3.16123
1287289345175,3.15290
1287289405175,3.19280
1287289465175,3.15298
1287289525175,3.17751
1287289585175,3.15276
1287289645175,3.16177
1287289705175,3.15723
1287289765175,3.13394
1287289825175,3.13892
1287289885175,3.09988
1287289945175,3.13128
1287290005175,3.11455
1287290065175,3.13898
1287290125175,3.14137
1287290185175,3.15715
1287290245175,3.10635
1287290305175,3.11049
1287290365176,3.15509
1287290425176,3.11130
1287290485176,3.11490
1287290545176,3.15179
1287290605175,3.11443
1287290665175,3.15256
1287290725175,3.13536
1287290785175,3.11067
1287290845175,3.10681
1287290905175,3.09214
1287290965175,3.14172
1287291025175,3.14308
1287291085175,3.11117
1287291145175,3.11655
1287291205175,3.13448
1287291265175,3.15052
1287291325175,3.13012
1287291385175,3.16895
1287291445175,3.11448
1287291505175,3.10820
1287291565175,3.11747
1287291625186,3.09817
1287291685186,3.10537
1287291745186,3.12079
1287291805186,3.10038
1287291865186,3.07968
1287291925186,3.10226
1287291985186,3.13326
1287292045186,3.09773
1287292105186,3.13857
1287292165186,3.11194
1287292225186,3.13261
1287292285186,3.09150
1287292345186,3.12203
1287292405186,3.12955
1287292465186,3.10123
1287292525186,3.12402
1287292585186,3.12476
1287292645186,3.13155
1287292705186,3.12787
1287292765186,3.14190
1287292825186,3.13661
1287292885186,3.11947
1287292945186,3.16164
1287293005186,3.14314
1287293065186,3.11015
1287293125186,3.10771
1287293185186,3.11499
1287293245186,3.10765
1287293305186,3.12040
1287293365186,3.09524
1287293425186,3.11955
1287293485186,3.13691
1287293545186,3.10434
1287293605186,3.11012
1287293665186,3.12561
1287293725186,3.10611
1287293785186,3.13496
1287293845186,3.10601
1287293905186,3.11694
1287293965186,3.11594
1287294025186,3.10138
1287294085186,3.12834
1287294145186,3.13240
1287294205186,3.09782
1287294265186,3.11746
1287294325186,3.11654
1287294385186,3.13771
1287294445186,3.12128
1287294505186,3.10788
1287294565186,3.12094
1287294625186,3.09705
1287294685186,3.10351
1287294745186,3.07327
1287294805186,3.12592
1287294865186,3.09970
1287294925186,3.10035
1287294985186,3.13914
1287295045186,3.12066
1287295105186,3.09299
1287295165186,3.10272
1287295225197,3.13511
1287295285197,3.10377
1287295345197,3.11683
1287295405197,3.09998
1287295465197,3.11580
1287295525197,3.10218
1287295585197,3.13466
1287295645197,3.10400
1287295705197,3.11150
1287295765197,3.11868
1287295825197,3.11076
1287295885197,3.11358
1287295945197,3.13745
1287296005197,3.09378
1287296065197,3.12287
1287296125197,3.07665
1287296185197,3.11905
1287296245197,3.17008
1287296305197,3.11609
1287296365197,3.11954
1287296425197,3.14104
1287296485197,3.14775
1287296545197,3.09530
1287296605197,3.12020
1287296665197,3.11473
1287296725197,3.13838
1287296785197,3.09114
1287296845197,3.14097
1287296905197,3.12301
1287296965197,3.11082
1287297025197,3.12772
1287297085197,3.09605
1287297145197,3.12235
1287297205197,3.11296
1287297265197,3.12042
1287297325197,3.13006
1287297385197,3.15366
1287297445197,3.14046
1287297505197,3.10837
1287297565197,3.13447
1287297625197,3.14419
1287297685197,3.11937
1287297745197,3.14115
1287297805197,3.12871
1287297865197,3.10358
1287297925197,3.16507
1287297985197,3.15029
1287298045197,3.11519
1287298105197,3.13553
1287298165197,3.16117
1287298225197,3.21223
1287298285197,3.15124
1287298345197,3.13937
1287298405197,3.14970
1287298465197,3.12349
1287298525197,3.10569
1287298585197,3.15137
1287298645197,3.13438
1287298705197,3.12760
1287298765197,3.12160
1287298825207,3.11778
1287298885207,3.13390
1287298945207,3.13251
1287299005207,3.12727
1287299065207,3.16396
1287299125207,3.10572
1287299185207,3.12673
1287299245207,3.09879
1287299305207,3.13491
1287299365207,3.14428
1287299425207,3.10118
1287299485207,3.13913
1287299545207,3.11797
1287299605207,3.15287
1287299665207,3.09587
1287299725207,3.13376
1287299785207,3.11828
1287299845207,3.12494
1287299905207,3.08379
1287299965207,3.11887
1287300025207,3.12504
1287300085207,3.14980
1287300145207,3.10729
1287300205207,3.10336
1287300265207,3.10332
1287300325207,3.09564
1287300385207,3.13299
1287300445207,3.12429
1287300505207,3.12082
1287300565207,3.14488
1287300625207,3.13014
1287300685207,3.12712
1287300745207,3.10002
1287300805207,3.12640
1287300865207,3.13912
1287300925207,3.10162
1287300985207,3.11261
1287301045207,3.10385
1287301105207,3.14810
1287301165207,3.10777
1287301225207,3.11703
1287301285207,3.09465
1287301345207,3.11316
1287301405207,3.10963
1287301465207,3.09087
1287301525207,3.13356
1287301585207,3.09358
1287301645207,3.09953
1287301705207,3.11847
1287301765207,3.11867
1287301825207,3.09867
1287301885207,3.08884
1287301945207,3.09720
1287302005207,3.10921
1287302065207,3.16215
1287302125207,3.09035
1287302185207,3.13568
1287302245207,3.14873
1287302305207,3.09945
1287302365207,3.11497
1287302425218,3.15794
1287302485218,3.13603
1287302545218,3.16376
1287302605218,3.14400
1287302665218,3.12785
1287302725218,3.12712
1287302785218,3.12753
1287302845218,3.13782
1287302905218,3.12196
1287302965218,3.12624
1287303025218,3.16849
1287303085218,3.14878
1287303145218,3.11495
1287303205218,3.13829
1287303265218,3.12699
1287303325218,3.14842
1287303385218,3.13615
1287303445218,3.13050
1287303505218,3.11178
1287303565218,3.11961
1287303625218,3.15788
1287303685218,3.13875
1287303745218,3.11596
1287303805218,3.13970
1287303865218,3.11353
1287303925218,3.13849
1287303985218,3.09940
1287304045218,3.10027
1287304105218,3.12661
1287304165218,3.15394
1287304225218,3.11148
1287304285218,3.10253
1287304345218,3.11728
1287304405218,3.13387
1287304465218,3.15035
1287304525218,3.13942
1287304585218,3.15712
1287304645218,3.11961
1287304705218,3.11717
1287304765218,3.16417
1287304825218,3.13129
1287304885218,3.12114
1287304945218,3.13076
1287305005218,3.10971
1287305065218,3.10713
1287305125218,3.14232
1287305185218,3.08329
1287305245218,3.11097
1287305305218,3.11791
1287305365218,3.13819
1287305425218,3.09735
1287305485218,3.09422
1287305545218,3.12168
1287305605218,3.15364
1287305665218,3.17236
1287305725218,3.20016
1287305785218,3.28466
1287305845218,3.31555
1287305905218,3.37373
1287305965218,3.40080
1287306025229,3.41115
1287306085229,3.35594
1287306145229,3.32749
1287306205229,3.33027
1287306265229,3.33028
1287306325229,3.30484
1287306385229,3.27327
1287306445229,3.26453
1287306505229,3.25639
1287306565229,3.21461
1287306625229,3.20107
1287306685229,3.18197
1287306745229,3.16465
1287306805229,3.26135
1287306865229,3.15668
1287306925229,3.13336
1287306985229,3.16688
1287307045229,3.16587
1287307105229,3.14380
1287307165229,3.12988
1287307225229,3.11739
1287307285229,3.09334
1287307345229,3.07987
1287307405229,3.13867
1287307465229,3.12653
1287307525229,3.12103
1287307585229,3.13596
1287307645229,3.16906
1287307705229,3.14697
1287307765229,3.08661
1287307825229,3.09482
1287307885229,3.11665
1287307945229,3.13259
1287308005229,3.13556
1287308065229,3.15069
1287308125229,3.15050
1287308185229,3.12874
1287308245229,3.09889
1287308305229,3.07881
1287308365229,3.11029
1287308425229,3.11055
1287308485229,3.10047
1287308545229,3.09767
1287308605229,3.12493
1287308665229,3.13632
1287308725229,3.11610
1287308785229,3.16722
1287308845229,3.10608
1287308905229,3.12504
1287308965229,3.10746
1287309025229,3.11254
1287309085229,3.13435
1287309145229,3.12798
1287309205229,3.11845
1287309265229,3.11282
1287309325229,3.11846
1287309385229,3.08912
1287309445229,3.07044
1287309505229,3.08601
1287309565229,3.10345
1287313225252,3.22033
1287313285252,3.20332
1287313345252,3.20923
1287313405252,3.29135
1287313465252,3.20463
1287313525252,3.15445
1287313585252,3.19462
1287313645252,3.27507
1287313705252,3.12834
1287313765252,3.18893
1287313825252,3.17054
1287313885252,3.12995
1287313945252,3.15111
1287314005252,3.11074
1287314065252,3.11965
1287314125252,3.09891
1287314185252,3.12339
1287314245252,3.12660
1287314305252,3.15599
1287314365252,3.12475
1287314425252,3.10859
1287314485252,3.15602
1287314545252,3.11234
1287314605252,3.11405
1287314665252,3.13010
1287314725252,3.13279
1287314785252,3.08346
1287314845252,3.12510
1287314905252,3.11054
1287314965252,3.09227
1287315025252,3.11352
1287315085252,3.12428
1287315145252,3.09689
1287315205252,3.09044
1287315265252,3.12066
1287315325252,3.08484
1287315385252,3.10306
1287315445252,3.10766
1287315505252,3.07166
1287315565252,3.09442
1287315625252,3.09285
1287315685252,3.11975
1287315745252,3.11539
1287315805252,3.09845
1287315865252,3.16579
1287315925252,3.15194
1287315985252,3.12624
1287316045252,3.14344
1287316105252,3.11002
1287316165252,3.14697
1287316225252,3.14251
1287316285252,3.10994
1287316345252,3.10368
1287316405252,3.13287
1287316465252,3.11516
1287316525252,3.11204
1287316585252,3.09165
1287316645252,3.13031
1287316705252,3.10606
1287316765252,3.11039
1287316825263,3.11726
1287316885263,3.11301
1287316945263,3.11936
1287317005263,3.10395
1287317065263,3.11577
1287317125263,3.08487
1287317185263,3.05243
1287317245263,3.14089
1287317305263,3.13736
1287317365263,3.13244
1287317425263,3.09522
1287317485263,3.09181
1287317545263,3.10304
1287317605263,3.11159
1287317665263,3.11875
1287317725263,3.11918
1287317785263,3.11176
1287317845263,3.12051
1287317905263,3.11093
1287317965263,3.11402
1287318025263,3.13315
1287318085263,3.12032
1287318145263,3.12733
1287318205263,3.14265
1287318265263,3.10646
1287318325263,3.13399
1287318385263,3.14484
1287318445263,3.10155
1287318505263,3.11216
1287318565263,3.07330
1287318625263,3.11041
1287318685263,3.11564
1287318745263,3.11492
1287318805263,3.13338
1287318865263,3.11095
1287318925263,3.17541
1287318985263,3.15329
1287319045263,3.13366
1287319105263,3.12235
1287319165263,3.14973
1287319225263,3.12216
1287319285263,3.13840
1287319345263,3.12053
1287319405263,3.13992
1287319465263,3.11641
1287319525263,3.13092
1287319585263,3.13993
1287319645263,3.14143
1287319705263,3.16351
1287319765263,3.13133
1287319825263,3.13901
1287319885263,3.17879
1287319945263,3.13573
1287320005263,3.16385
1287320065263,3.14226
1287320125263,3.15368
1287320185263,3.11503
1287320245263,3.14427
1287320305263,3.16118
1287320365263,3.14039
1287320425275,3.13715
1287320485275,3.13400
1287320545275,3.15877
1287320605275,3.12301
1287320665275,3.13522
1287320725275,3.14099
1287320785275,3.13626
1287320845275,3.12682
1287320905275,3.10682
1287320965275,3.15013
1287321025275,3.12874
1287321085275,3.12453
1287321145275,3.16200
1287321205275,3.14633
1287321265275,3.13198
1287321325275,3.16658
1287321385275,3.16832
1287321445275,3.16949
1287321505275,3.13129
1287321565275,3.14206
1287321625275,3.15482
1287321685275,3.16841
1287321745275,3.16743
1287321805275,3.17990
1287323005275,3.13362
1287323065275,3.14472
1287323125275,3.15206
1287323185275,3.15329
1287323245275,3.18073
1287323305275,3.15899
1287323365275,3.12213
1287323425275,3.18323
1287323485275,3.16079
1287323545275,3.15244
1287323605275,3.12597
1287323665275,3.14056
1287323725275,3.12971
1287323785275,3.12601
1287323845275,3.14118
1287323905275,3.15242
1287323965275,3.13548
1287324025287,3.12602
1287324085287,3.14446
1287324145287,3.14656
1287324205287,3.12246
1287324265287,3.12964
1287324325287,3.11279
1287324385287,3.15430
1287324445287,3.16250
1287324505287,3.14015
1287324565287,3.12544
1287324625287,3.13965
1287324685287,3.14006
1287324745287,3.14288
1287324805287,3.18322
1287324865287,3.17343
1287324925287,3.13217
1287324985287,3.13202
1287325045287,3.12158
1287325105287,3.13094
1287325165287,3.15500
1287325225287,3.13102
1287325285287,3.12423
1287325345287,3.08884
1287325405287,3.13902
1287325465287,3.12883
1287325525287,3.16659
1287325585287,3.11430
1287325645287,3.12118
1287325705287,3.12403
1287325765287,3.11099
1287325825287,3.12125
1287325885287,3.12973
1287325945287,3.13491
1287326005287,3.14333
1287326065287,3.15459
1287326125287,3.12517
1287326185287,3.14088
1287326245287,3.16876
1287326305287,3.16721
1287326365287,3.15225
1287326425287,3.12477
1287326485287,3.13158
1287326545287,3.17676
1287326605287,3.14403
1287326665287,3.13479
1287326725287,3.13361
1287326785287,3.15800
1287326845287,3.14724
1287326905287,3.11879
1287326965287,3.11681
1287327025287,3.14342
1287327085287,3.11347
1287327145287,3.13243
1287327205287,3.14644
1287327265287,3.08591
1287327325287,3.13843
1287327385287,3.14233
1287327445287,3.19270
1287327505287,3.16275
1287327565287,3.12598
1287327625299,3.15768
1287327685299,3.11331
1287327745299,3.13657
1287327805299,3.15690
1287327865299,3.16505
1287327925299,3.16810
1287327985299,3.16130
1287328045299,3.17891
1287328105299,3.14214
1287328165299,3.15658
1287328225299,3.15343
1287328285299,3.13125
1287328345299,3.13013
1287328405299,3.15809
1287328465299,3.16725
1287328525299,3.13870
1287328585299,3.12808
1287328645299,3.13530
1287328705299,3.14185
1287328765299,3.13003
1287328825299,3.15547
1287328885299,3.11021
1287328945299,3.12378
1287329005299,3.10271
1287329065299,3.12667
1287329125299,3.11257
1287329185299,3.14396
1287329245299,3.13247
1287329305299,3.12463
1287329365299,3.12247
1287329425299,3.12768
1287329485299,3.16091
1287329545299,3.14541
1287329605299,3.14807
1287329665299,3.12217
1287329725299,3.13775
1287329785299,3.13095
1287329845299,3.16603
1287329905299,3.13132
1287329965299,3.14856
1287330025299,3.11065
1287330085299,3.10657
1287330145299,3.14160
1287330205299,3.12154
1287330265299,3.13126
1287330325299,3.12429
1287330385299,3.16694
1287330445299,3.12687
1287330505299,3.15356
1287330565299,3.12975
1287330625299,3.12369
1287330685299,3.16416
1287330745299,3.14134
1287330805299,3.15118
1287330865299,3.11414
1287330925299,3.12341
1287330985299,3.12745
1287331045299,3.10311
1287331105299,3.11348
1287331165299,3.12496
1287331225311,3.16817
1287331285311,3.15624
1287331345311,3.13301
1287331405311,3.12141
1287331465311,3.14665
1287331525311,3.12351
1287331585311,3.13244
1287331645311,3.15807
1287331705311,3.15661
1287331765311,3.17904
1287331825311,3.13775
1287331885311,3.12450
1287331945311,3.13182
1287332005311,3.13229
1287332065311,3.17257
1287332125311,3.15018
1287332185311,3.11743
1287332245311,3.13773
1287332305311,3.15814
1287332365311,3.15411
1287332425311,3.15932
1287332485311,3.16089
1287332545311,3.14734
1287332605311,3.13882
1287332665311,3.15199
1287332725311,3.11582
1287332785311,3.13021
1287332845311,3.14055
1287332905311,3.15705
1287332965311,3.16935
1287333025311,3.14766
1287333085311,3.16671
1287333145311,3.12143
1287333205311,3.13829
1287333265311,3.16044
1287333325311,3.14436
1287333385311,3.15255
1287333445311,3.13930
1287333505311,3.17260
1287333565311,3.14708
1287333625311,3.15484
1287333685311,3.13523
1287333745311,3.16112
1287333805311,3.13330
1287333865311,3.16387
1287333925311,3.16685
1287333985311,3.19044
1287334045311,3.14891
1287334105311,3.16964
1287334165311,3.12587
1287334225311,3.12767
1287334285311,3.16287
1287334345311,3.15238
1287334405311,3.13836
1287334465311,3.16872
1287334525311,3.12397
1287334585311,3.13103
1287334645311,3.11262
1287334705311,3.14244
1287334765311,3.13236
1287334825324,3.14983
1287334885324,3.13853
1287334945324,3.15444
1287335005324,3.11861
1287335065324,3.15628
1287335125324,3.11973
1287335185324,3.11649
1287335245324,3.12421
1287335305324,3.12718
1287335365324,3.16060
1287335425324,3.17762
1287335485324,3.21481
1287335545324,3.16603
1287335605324,3.17397
1287335665324,3.14262
1287335725324,3.14742
1287335785324,3.14224
1287335845324,3.15810
1287335905324,3.15024
1287335965324,3.11842
1287336025324,3.12453
1287336085324,3.14111
1287336145324,3.15877
1287336205324,3.14555
1287336265324,3.14105
1287336325324,3.15272
1287336385324,3.11093
1287336445324,3.13269
1287336505324,3.10548
1287336565324,3.11325
1287336625324,3.13087
1287336685324,3.11701
1287336745324,3.13977
1287336805324,3.16005
1287336865324,3.15488
1287336925324,3.17373
1287336985324,3.20724
1287337045324,3.25518
1287337105324,3.31852
1287337165324,3.29939
1287337225324,3.34120
1287337285324,3.30794
1287337345324,3.27636
1287337405324,3.27131
1287337465324,3.24042
1287337525324,3.23981
1287337585324,3.20050
1287337645324,3.18474
1287337705324,3.19601
1287337765324,3.14229
1287337825324,3.18512
1287337885324,3.16974
1287337945324,3.16639
1287338005324,3.14857
1287338065324,3.15244
1287338125324,3.16653
1287338185324,3.16259
1287338245324,3.14239
1287338305324,3.13963
1287338365324,3.14601
1287338425336,3.13256
1287338485336,3.15312
1287338545336,3.15870
1287338605336,3.14327
1287338665336,3.11542
1287338725336,3.11976
1287338785336,3.19041
1287338845336,3.15335
1287338905336,3.18063
1287338965336,3.14441
1287339025336,3.13769
1287339085336,3.12411
1287339145336,3.14885
1287339205336,3.14459
1287339265336,3.13736
1287339325336,3.17248
1287339385336,3.10378
1287339445336,3.12646
1287339505336,3.15552
1287339565336,3.12928
1287339625336,3.13686
1287339685336,3.13582
1287339745336,3.15991
1287339805336,3.13314
1287339865336,3.13169
1287339925336,3.20548
1287339985336,3.13437
1287340045336,3.11484
1287340105336,3.12406
1287340165336,3.13825
1287340225336,3.11654
1287340285336,3.15282
1287340345336,3.14107
1287340405336,3.14116
1287340465336,3.11621
1287340525336,3.12180
1287340585336,3.09449
1287340645336,3.14522
1287340705336,3.13835
1287340765336,3.14745
1287340825336,3.11058
1287340885336,3.11420
1287340945336,3.16395
1287341005336,3.13186
1287341065336,3.14771
1287341125336,3.12734
1287341185336,3.15257
1287341245336,3.10524
1287341305336,3.13958
1287341365336,3.12902
1287341425336,3.12761
1287341485336,3.13600
1287341545336,3.11457
1287341605336,3.13995
1287341665336,3.13011
1287341725336,3.13784
1287341785336,3.13492
1287341845336,3.12467
1287341905336,3.12196
1287341965336,3.13376
1287342025348,3.11763
1287342085348,3.12551
1287342145348,3.11596
1287342205348,3.12210
1287342265348,3.15141
1287342325348,3.14603
1287342385348,3.17208
1287342445348,3.14142
1287342505348,3.13481
1287342565348,3.15487
1287342625348,3.14215
1287342685348,3.12534
1287342745348,3.13795
1287342805348,3.11724
1287342865348,3.15784
1287342925348,3.12466
1287342985348,3.12781
1287343045348,3.13664
1287343105348,3.08463
1287343165348,3.12780
1287343225348,3.12721
1287343285348,3.16902
1287343345348,3.14326
1287343405348,3.13098
1287343465348,3.14852
1287343525348,3.18127
1287343585348,3.12992
1287343645348,3.13081
1287343705348,3.12491